Wind_Speed
25 28 29 33 32 27 24 24 25 27 29 31 33 36 38 37 36 35 33 33 35 38 41 43 42 41 39 39 39 40 41 42 44 43 44 46 47 48 50 53 56 58 61
27 26 29 27 26 27 26 26 27 30 32 34 36 38 38 37 36 35 35 36 39 41 43 42 42 40 41 42 43 44 43 44 48 50 51 50 50 53 57 61 66 69 71
27 27 28 29 29 28 27 27 28 30 33 37 38 37 35 35 37 37 38 40 42 43 43 43 43 43 44 46 47 47 48 47 50 54 60 62 63 65 64 66 69 72 73
25 24 24 27 29 29 28 28 29 32 34 35 35 35 34 36 38 39 41 42 44 44 44 43 43 45 46 46 47 49 50 54 57 60 63 68 73 77 75 72 72 73 75
25 24 24 24 27 27 28 29 30 32 34 36 34 35 36 37 39 40 42 42 42 42 44 44 44 45 45 47 50 53 57 60 63 66 69 71 73 76 79 77 79 80 81
25 25 24 24 25 27 29 31 31 34 35 36 35 37 37 38 39 40 41 42 41 42 44 44 44 45 48 52 56 59 63 66 68 71 74 77 79 80 82 82 82 83 85
26 26 25 26 26 29 31 32 33 35 37 36 37 39 38 38 40 40 40 41 43 43 44 45 47 50 54 58 61 64 67 70 73 76 78 79 81 84 87 89 89 88 88
26 26 25 25 26 29 31 33 33 34 35 36 38 39 39 39 39 39 40 42 42 43 45 48 52 55 59 62 65 69 72 74 77 78 80 82 84 87 90 93 95 94 93
26 25 25 25 26 28 30 30 33 34 35 36 38 38 38 38 38 40 41 42 43 46 50 53 56 60 63 66 70 73 75 77 79 81 84 86 88 91 94 96 100 105 105
24 26 25 26 27 29 30 32 32 33 34 36 36 37 37 38 39 40 43 43 46 50 54 57 60 64 67 71 74 76 77 79 81 84 85 88 91 94 99 103 106 107 108
26 27 26 27 28 31 32 32 33 34 33 34 35 36 38 39 40 42 45 48 51 53 57 61 65 69 72 74 75 76 78 80 82 85 90 94 99 103 105 105 104 103 102
25 26 26 27 29 31 33 33 33 33 34 35 36 38 39 40 41 45 49 51 54 58 62 66 70 72 73 73 74 75 77 81 87 93 97 101 105 106 104 101 99 97 96
23 24 25 27 30 31 32 31 32 34 35 36 38 40 41 42 45 48 51 54 59 63 68 70 70 70 70 71 73 77 83 90 95 100 104 106 105 101 98 95 94 93 90
24 26 27 29 32 32 31 32 34 35 37 38 40 41 43 45 47 50 55 59 64 69 69 67 67 67 69 74 80 86 92 97 101 105 106 102 97 94 92 91 89 87 85
27 30 32 33 33 33 33 34 35 37 38 40 41 43 44 46 50 55 60 64 68 66 64 64 65 70 76 82 88 93 98 102 104 103 98 93 89 87 86 85 83 82 82
31 32 33 34 34 34 35 35 36 38 40 41 42 43 46 50 56 60 65 67 63 61 61 65 72 77 82 88 94 100 104 105 102 96 90 86 83 80 78 77 79 80 84
33 32 32 32 33 34 34 35 38 40 41 42 42 45 50 55 60 64 65 60 59 60 65 71 76 83 89 94 100 105 105 100 93 88 84 79 76 75 75 75 78 80 72
31 32 32 32 32 33 35 38 40 39 42 41 45 50 55 59 63 63 58 57 60 66 72 78 84 90 95 101 105 104 99 91 84 79 75 74 72 74 77 78 78 68 54
30 30 30 32 33 35 38 38 39 40 40 44 49 54 58 62 59 56 56 60 66 72 78 84 90 95 100 107 106 99 89 82 77 73 71 73 75 78 80 77 64 52 51
28 28 30 33 36 37 35 36 37 39 44 49 53 57 61 55 54 56 61 67 74 78 84 89 95 100 107 105 98 90 84 79 73 69 71 75 80 79 66 53 50 49 44
28 30 31 31 33 34 33 36 39 44 48 51 57 58 53 53 56 61 68 73 78 83 88 92 100 107 104 96 87 81 77 76 74 73 74 77 71 55 46 46 46 43 36
26 28 30 29 31 34 35 38 43 46 50 56 55 52 53 56 61 67 72 76 82 86 90 97 105 107 98 87 78 74 73 76 78 77 75 62 47 44 43 42 40 31 28
27 28 30 32 33 35 38 41 44 49 54 50 49 51 55 60 65 70 76 80 85 90 94 102 108 100 86 76 74 74 75 78 78 71 54 44 42 40 38 37 29 28 33
27 29 30 31 36 37 39 42 48 51 46 47 50 53 58 63 69 74 79 84 89 93 99 107 102 88 76 73 74 77 77 72 62 47 40 39 37 36 34 26 28 31 25
28 30 31 33 36 38 42 48 47 44 45 48 52 57 61 67 71 77 83 88 93 99 105 103 89 79 72 73 80 78 66 55 44 40 38 34 30 27 22 25 27 21 20
28 29 32 35 37 42 47 44 43 44 47 51 56 60 65 71 76 81 85 90 95 102 99 85 77 71 74 80 73 63 51 46 46 41 31 24 23 18 21 19 19 17 17
Wind_Direction
239 244 243 243 246 250 252 255 259 265 276 279 282 287 294 296 293 293 292 292 293 294 295 297 299 300 300 299 298 297 296 296 296 293 292 294 295 294 294 293 293 294 293
238 244 246 246 247 250 255 261 264 270 277 281 284 286 289 287 291 294 295 295 295 296 297 299 300 300 301 301 300 300 300 300 299 298 297 293 293 294 294 294 294 295 293
236 242 247 247 248 251 258 261 266 273 279 282 285 288 288 288 291 292 293 294 295 296 298 300 300 301 301 302 304 304 303 301 300 299 297 294 292 291 291 291 291 291 292
234 243 251 252 252 255 258 263 270 275 281 286 286 284 286 287 289 290 292 295 297 298 298 299 300 300 303 304 303 301 299 299 298 298 298 298 299 299 297 294 293 292 292
237 244 250 251 252 255 260 265 272 278 283 284 284 284 284 285 288 291 294 295 296 297 298 299 301 301 300 300 300 299 299 299 298 297 298 298 297 297 297 296 296 296 296
240 247 249 250 252 258 264 271 276 279 280 283 285 285 286 288 291 293 293 296 297 296 297 299 299 298 298 298 299 299 299 299 300 300 300 300 299 298 297 296 296 295 295
241 247 251 255 258 262 267 271 274 276 279 283 286 287 289 290 291 294 297 297 296 297 298 299 299 299 299 299 300 300 301 302 302 301 300 300 300 299 298 298 297 297 297
242 248 254 259 263 266 269 270 274 278 282 283 285 287 288 290 294 296 294 294 296 297 297 298 298 299 300 301 302 302 303 303 302 301 301 301 301 301 302 301 300 299 298
247 250 256 262 265 268 270 274 274 276 281 284 286 287 289 292 294 294 294 294 296 296 296 297 299 300 302 303 304 304 304 303 303 303 303 304 305 305 303 303 302 301 300
249 256 261 265 267 268 272 274 278 282 284 284 284 286 289 292 292 293 294 295 296 297 298 300 302 304 305 305 306 305 305 306 306 307 306 306 305 303 303 303 303 303 303
249 254 258 262 268 272 276 280 282 283 284 283 285 288 290 291 293 294 295 296 298 300 303 304 306 307 308 308 308 308 309 309 309 308 308 306 305 306 307 307 306 304 304
253 260 264 268 271 275 277 279 281 282 282 285 288 291 293 294 294 295 298 301 303 304 306 308 309 310 311 310 310 311 312 310 310 309 308 309 309 309 308 306 306 305 305
257 261 265 268 273 276 278 280 281 282 286 289 291 294 296 296 298 300 301 304 306 308 310 311 312 312 312 313 313 312 311 312 310 310 311 311 310 309 308 307 306 306 306
266 271 274 275 277 278 280 280 283 286 289 292 294 296 298 299 300 302 304 307 309 311 313 313 313 313 314 313 313 314 313 312 312 312 312 311 310 309 307 307 308 308 308
278 280 279 280 282 283 282 284 284 287 291 293 295 298 299 301 303 305 308 311 313 314 314 313 314 315 315 315 314 313 314 315 314 312 311 311 309 308 309 311 310 309 309
274 276 278 280 282 282 281 283 287 290 292 295 297 298 301 304 306 309 313 314 314 314 313 315 316 317 316 314 315 316 317 316 314 313 312 310 310 311 311 310 309 311 312
281 279 279 279 276 277 282 285 286 290 294 295 300 302 304 307 310 313 313 313 313 313 315 317 317 316 316 317 318 318 318 317 315 313 312 312 312 311 310 309 310 311 312
276 276 276 277 279 283 285 285 289 293 296 300 302 304 307 310 312 312 312 312 313 314 316 317 316 317 317 319 320 319 318 316 315 314 314 314 313 312 311 311 311 313 313
276 278 279 279 281 283 284 286 292 297 299 302 303 307 311 312 312 311 312 312 314 316 317 319 319 319 318 321 320 318 317 316 315 315 315 316 315 314 313 312 313 315 314
274 276 279 280 281 287 292 293 296 298 299 303 308 310 311 310 311 311 312 313 316 317 319 320 322 321 322 321 320 318 317 318 317 318 318 317 315 315 315 314 315 318 321
274 278 283 287 290 291 293 296 296 298 303 307 309 310 310 311 311 311 313 315 316 319 320 321 323 324 323 322 320 319 319 319 319 320 320 318 317 317 316 316 320 323 327
281 284 284 286 288 291 292 294 297 303 307 308 309 309 310 311 312 314 314 316 318 320 320 322 324 324 323 321 320 319 320 321 320 320 320 320 321 320 320 322 324 328 332
279 282 283 284 286 288 290 296 302 306 307 308 308 310 311 312 313 315 317 318 320 321 322 323 325 324 322 320 320 320 322 320 319 318 321 323 323 322 323 326 330 334 333
278 278 280 283 289 294 297 302 304 306 306 307 309 311 312 314 316 318 320 321 321 321 323 324 325 322 321 321 321 321 321 319 319 321 322 325 326 326 328 332 335 338 343
279 280 283 286 291 298 301 303 305 305 306 309 311 312 314 316 318 320 321 322 322 323 325 325 324 323 323 324 325 326 326 324 325 325 327 328 327 328 332 336 338 349 355
283 283 287 293 298 299 302 304 304 306 309 310 311 313 315 317 319 321 322 323 324 325 326 324 324 325 326 328 329 330 330 328 327 328 331 331 333 338 338 344 351 358 358
Height
5767 5767 5769 5773 5776 5778 5780 5781 5782 5783 5783 5782 5781 5780 5778 5776 5774 5772 5770 5768 5766 5764 5761 5758 5754 5751 5748 5745 5741 5738 5734 5729 5724 5722 5720 5716 5713 5708 5705 5701 5697 5693 5689
5760 5763 5766 5769 5771 5773 5775 5776 5777 5777 5777 5776 5775 5773 5772 5770 5768 5766 5764 5761 5759 5756 5753 5749 5746 5742 5738 5735 5731 5727 5723 5719 5712 5708 5705 5704 5705 5698 5693 5687 5682 5676 5670
5756 5759 5762 5764 5766 5768 5770 5771 5771 5771 5771 5770 5768 5766 5765 5763 5761 5759 5757 5754 5751 5748 5745 5741 5737 5733 5728 5724 5719 5715 5710 5708 5703 5696 5689 5686 5684 5681 5681 5676 5669 5661 5654
5752 5754 5756 5759 5762 5764 5765 5766 5766 5766 5764 5763 5761 5759 5758 5756 5754 5752 5749 5746 5743 5739 5736 5732 5728 5723 5718 5714 5709 5705 5700 5695 5690 5686 5678 5671 5661 5654 5653 5654 5649 5643 5636
5747 5750 5753 5754 5757 5759 5760 5760 5760 5759 5758 5757 5755 5753 5751 5749 5747 5744 5741 5738 5735 5731 5726 5722 5718 5714 5709 5704 5699 5694 5688 5682 5676 5669 5663 5657 5649 5640 5632 5630 5623 5617 5609
5742 5745 5747 5750 5752 5753 5754 5754 5754 5753 5751 5750 5748 5746 5744 5741 5739 5736 5733 5729 5726 5722 5718 5713 5708 5704 5699 5694 5688 5681 5675 5668 5660 5653 5644 5636 5627 5620 5612 5607 5603 5597 5589
5737 5739 5742 5744 5746 5747 5747 5747 5747 5745 5744 5742 5741 5739 5736 5733 5731 5727 5724 5720 5716 5713 5708 5703 5698 5693 5687 5681 5675 5667 5660 5652 5644 5636 5628 5618 5608 5598 5588 5579 5576 5570 5565
5732 5734 5737 5739 5740 5741 5741 5740 5739 5738 5737 5736 5734 5731 5728 5725 5723 5719 5716 5712 5708 5704 5698 5693 5687 5681 5675 5668 5660 5652 5644 5636 5627 5618 5609 5599 5589 5578 5567 5555 5543 5540 5537
5726 5729 5732 5733 5734 5734 5734 5733 5732 5731 5730 5728 5726 5723 5720 5718 5715 5711 5707 5703 5699 5693 5688 5682 5676 5669 5661 5654 5646 5637 5628 5619 5608 5599 5589 5579 5568 5557 5544 5531 5516 5500 5498
5722 5724 5726 5727 5728 5728 5727 5726 5725 5724 5722 5720 5718 5715 5713 5710 5706 5703 5698 5694 5689 5683 5677 5670 5663 5655 5646 5638 5629 5620 5610 5600 5590 5580 5570 5558 5546 5534 5520 5507 5491 5471 5452
5716 5718 5720 5721 5722 5721 5721 5720 5719 5717 5715 5713 5710 5708 5705 5702 5698 5693 5689 5684 5678 5672 5665 5657 5648 5640 5631 5621 5612 5602 5592 5582 5572 5560 5549 5536 5522 5508 5492 5476 5460 5444 5423
5711 5713 5714 5715 5714 5715 5714 5713 5711 5709 5707 5705 5702 5699 5696 5692 5688 5683 5678 5672 5666 5658 5651 5642 5633 5623 5613 5604 5595 5585 5574 5563 5552 5540 5526 5511 5495 5478 5462 5447 5433 5417 5402
5706 5707 5708 5708 5708 5707 5706 5705 5703 5701 5699 5697 5694 5690 5687 5683 5678 5673 5667 5660 5652 5644 5635 5626 5616 5606 5597 5588 5578 5568 5557 5544 5531 5515 5499 5483 5466 5451 5435 5420 5407 5394 5381
5700 5701 5702 5701 5700 5699 5698 5697 5695 5693 5690 5688 5685 5681 5677 5672 5667 5661 5655 5647 5638 5629 5620 5610 5601 5591 5581 5571 5560 5550 5538 5523 5507 5489 5472 5456 5439 5423 5409 5396 5384 5371 5358
5692 5693 5693 5692 5692 5691 5690 5689 5687 5685 5682 5679 5676 5672 5667 5662 5656 5649 5641 5633 5624 5614 5605 5596 5586 5576 5565 5553 5541 5529 5515 5499 5483 5465 5448 5431 5416 5402 5388 5373 5362 5350 5338
5687 5687 5686 5686 5686 5684 5682 5681 5679 5677 5674 5671 5667 5661 5656 5651 5644 5637 5628 5619 5610 5601 5592 5582 5572 5560 5547 5534 5520 5503 5490 5473 5455 5440 5425 5410 5396 5383 5372 5358 5344 5331 5316
5679 5679 5679 5679 5678 5676 5676 5674 5671 5669 5665 5661 5656 5651 5646 5639 5632 5623 5615 5606 5597 5588 5579 5567 5555 5542 5528 5513 5497 5481 5465 5447 5431 5416 5404 5392 5379 5365 5353 5342 5329 5317 5305
5671 5671 5671 5671 5670 5669 5668 5665 5663 5660 5656 5651 5647 5641 5634 5627 5619 5610 5602 5593 5585 5575 5563 5551 5539 5525 5509 5492 5475 5457 5441 5426 5411 5396 5384 5372 5362 5348 5332 5321 5310 5299 5291
5664 5664 5664 5663 5662 5661 5659 5657 5654 5650 5646 5642 5636 5630 5622 5615 5606 5598 5590 5581 5572 5560 5549 5536 5521 5506 5490 5470 5450 5433 5419 5407 5395 5382 5369 5354 5341 5327 5313 5299 5291 5285 5277
5657 5657 5657 5656 5655 5653 5650 5648 5645 5641 5637 5631 5625 5618 5610 5602 5595 5587 5577 5567 5556 5545 5532 5519 5504 5487 5468 5447 5429 5411 5396 5386 5377 5368 5355 5339 5321 5308 5295 5285 5278 5272 5265
5651 5650 5650 5648 5646 5644 5642 5639 5636 5631 5626 5620 5613 5606 5598 5591 5583 5574 5564 5554 5543 5530 5516 5502 5486 5466 5446 5428 5410 5395 5380 5366 5357 5347 5336 5321 5305 5293 5285 5277 5269 5263 5257
5644 5644 5642 5640 5638 5636 5633 5630 5626 5621 5615 5609 5601 5595 5587 5579 5571 5561 5550 5538 5525 5513 5498 5482 5466 5446 5427 5408 5395 5381 5367 5353 5338 5328 5316 5303 5293 5285 5277 5270 5263 5257 5252
5637 5635 5634 5632 5630 5627 5624 5620 5615 5610 5604 5597 5591 5584 5576 5567 5558 5548 5536 5522 5508 5494 5478 5461 5445 5427 5409 5394 5380 5366 5354 5340 5325 5311 5300 5292 5285 5277 5271 5264 5258 5253 5247
5629 5627 5626 5624 5621 5618 5614 5610 5605 5599 5593 5587 5581 5574 5565 5556 5545 5533 5519 5506 5491 5476 5459 5442 5425 5409 5394 5380 5366 5353 5339 5324 5311 5300 5293 5285 5278 5271 5265 5260 5255 5249 5244
5621 5619 5617 5615 5612 5608 5604 5599 5593 5588 5583 5576 5569 5562 5552 5543 5532 5518 5503 5489 5472 5453 5436 5419 5403 5388 5379 5365 5349 5332 5319 5307 5298 5291 5285 5279 5274 5269 5263 5257 5252 5248 5244
5612 5611 5608 5605 5602 5598 5594 5588 5583 5578 5571 5565 5557 5548 5539 5528 5516 5505 5493 5472 5455 5438 5418 5400 5385 5376 5360 5347 5335 5322 5309 5299 5290 5284 5279 5274 5269 5266 5262 5257 5252 5248 5244